Location: The Jewett Observatory
(46.7288°N, 117.1525°W)
Time: 15:03:42
(UTC-08:00)

Meteor 1-28 Rocket - Visible Passes

Search period start: 20 November 2017 00:00
Search period end: 30 November 2017 00:00
Orbit: 504 x 526 km, 97.2° (Epoch: 20 November)

Date Brightness Start Highest point End Pass type
(mag) Time Alt. Az. Time Alt. Az. Time Alt. Az.
20 Nov 5.5 04:06:43 10° SE 04:08:04 20° SE 04:08:04 20° SE visible
20 Nov 5.3 05:42:28 10° SW 05:43:03 12° WSW 05:43:03 12° WSW visible
20 Nov 3.4 17:09:09 10° NNE 17:12:44 46° E 17:16:19 10° S visible
20 Nov 6.1 18:44:15 10° NNW 18:46:28 15° WNW 18:48:41 10° W visible
21 Nov 6.0 03:52:04 10° SE 03:52:45 14° SE 03:52:45 14° SE visible
21 Nov 5.1 05:26:38 10° SW 05:27:44 15° SW 05:27:44 15° SW visible
21 Nov 4.0 16:54:22 10° NNE 16:57:42 31° E 17:01:01 10° SSE visible
21 Nov 5.6 18:28:45 10° NNW 18:31:37 21° WNW 18:34:28 10° WSW visible
22 Nov 5.0 05:11:07 10° SSW 05:12:26 18° SW 05:12:26 18° SW visible
22 Nov 4.5 16:39:43 10° NE 16:42:38 21° E 16:45:30 10° SE visible
22 Nov 5.0 18:13:28 10° N 18:16:44 30° WNW 18:20:00 10° SW visible
23 Nov 5.0 04:55:49 10° S 04:57:08 20° SSW 04:57:08 20° SSW visible
23 Nov 4.3 17:58:17 10° N 18:01:50 44° WNW 18:05:22 10° SW visible
24 Nov 5.2 04:40:41 10° S 04:41:50 19° S 04:41:50 19° S visible
24 Nov 3.5 17:43:11 10° N 17:46:53 67° WNW 17:50:34 10° SSW visible
25 Nov 5.5 04:25:41 10° SSE 04:26:33 16° SSE 04:26:33 16° SSE visible
25 Nov 3.0 17:28:10 10° NNE 17:31:55 81° ESE 17:35:37 10° S visible
26 Nov 5.9 04:10:50 10° SSE 04:11:16 13° SSE 04:11:16 13° SSE visible
26 Nov 3.3 17:13:15 10° NNE 17:16:54 53° E 17:20:32 10° S visible
26 Nov 6.2 18:48:39 10° NNW 18:50:34 14° WNW 18:52:29 10° W visible
27 Nov 3.8 16:58:25 10° NNE 17:01:52 35° E 17:05:17 10° SSE visible
27 Nov 5.8 18:33:03 10° NNW 18:35:44 19° WNW 18:38:24 10° WSW visible
28 Nov 5.6 05:15:26 10° SSW 05:15:40 11° SSW 05:15:40 11° SSW visible
28 Nov 4.3 16:43:43 10° NE 16:46:48 24° E 16:49:51 10° SSE visible
28 Nov 5.2 18:17:41 10° N 18:20:50 27° WNW 18:24:00 10° SW visible
29 Nov 5.6 05:00:04 10° SSW 05:00:24 12° SSW 05:00:24 12° SSW visible
29 Nov 4.5 18:02:27 10° N 18:05:56 38° WNW 18:09:25 10° SW visible
